User: anonymous   Login
Location: Unspecified
(0.0000°N, 0.0000°E)
Time: 13:24:36
(UTC+00:00)
Language:

NIUSAT - Orbit

View from above orbital plane
View from above orbital plane
View from above satellite
View from above satellite

Ground track
Ground track

The orbit data is extracted from the following two-line orbital elements,

1 42766U 17036B   18347.85273443 +.00000849 +00000-0 +41567-4 0  9999
2 42766 097.3786 043.4898 0016687 150.4050 209.8133 15.20745827081833
Epoch (UTC): 13 December 2018 20:27:56
Eccentricity: 0.0016687
inclination: 97.3786°
perigee height: 492 km
apogee height: 515 km
right ascension of ascending node: 43.4898°
argument of perigee: 150.4050°
revolutions per day: 15.20745827
mean anomaly at epoch: 209.8133°
orbit number at epoch: 8183

The dashed part of the orbit path shows where the satellite is in the earth's shadow,  

DLR